DW7764 Weather Reports


Display with metric or nautical units.
time (UTC)temp
F
wind
direction
speed
MPH
gust
MPH
rain 1hr
in
rain 24hr
in
rain mn
in
humidity
%
barometer
mb
20260505193027 52 316 0.0 0.0 0.00 0.24 0.17 99 1015.3
20260505191527 53 315 0.0 3.0 0.00 0.24 0.17 99 1015.2
20260505190033 53 301 0.0 1.0 0.00 0.24 0.17 99 1015.3
20260505184532 53 297 0.0 0.0 0.00 0.24 0.17 99 1015.2
20260505183025 54 297 0.0 2.0 0.01 0.24 0.17 99 1015.3
20260505181525 54 297 0.0 0.0 0.02 0.24 0.17 99 1015.0
20260505180035 54 297 0.0 2.0 0.02 0.24 0.17 99 1015.3
20260505174525 53 301 1.0 5.0 0.02 0.24 0.17 99 1014.9
20260505173026 54 190 1.0 3.0 0.01 0.23 0.16 99 1015.1
20260505171523 53 283 0.0 0.0 0.00 0.22 0.15 99 1015.4
20260505170023 53 281 1.0 4.0 0.14 0.22 0.15 99 1015.7
20260505164521 52 288 1.0 3.0 0.14 0.22 0.15 99 1015.8
20260505163023 52 283 2.0 4.0 0.14 0.22 0.15 98 1015.7
20260505161520 53 337 3.0 12.0 0.14 0.22 0.15 95 1015.5
20260505153017 65 112 3.0 6.0 0.00 0.09 0.01 67 1014.5
20260505151517 65 97 4.0 9.0 0.00 0.09 0.01 65 1014.6
20260505124601 62 146 4.0 8.0 0.00 0.09 0.01 96 1015.4
20260505123102 64 228 1.0 2.0 0.00 0.09 0.01 97 1015.4
20260505121623 63 90 3.0 7.0 0.00 0.09 0.01 97 1015.8
20260505120053 62 145 0.0 4.0 0.00 0.09 0.01 98 1015.8
20260505114551 63 123 0.0 4.0 0.00 0.09 0.01 98 1016.1
20260505113055 62 96 3.0 7.0 0.00 0.09 0.01 98 1016.2
20260505111552 60 134 0.0 3.0 0.00 0.09 0.01 99 1016.4
20260505101546 59 141 1.0 9.0 0.00 0.09 0.01 98 1016.8
20260505100108 60 103 1.0 5.0 0.00 0.09 0.01 98 1016.6
20260505094544 61 152 2.0 4.0 0.00 0.09 0.01 99 1016.4
20260505093039 59 293 0.0 2.0 0.00 0.09 0.01 99 1016.3
20260505091550 56 139 0.0 2.0 0.00 0.09 0.01 99 1016.2
20260505090048 56 142 0.0 4.0 0.00 0.09 0.01 99 1016.6
20260505084535 57 146 1.0 2.0 0.00 0.09 0.01 99 1016.7
20260505083045 57 148 0.0 3.0 0.00 0.09 0.01 99 1016.8
20260505081540 58 298 0.0 3.0 0.00 0.09 0.01 99 1016.4
20260505080044 58 216 0.0 2.0 0.00 0.09 0.01 99 1016.3
20260505074527 56 286 0.0 2.0 0.00 0.09 0.01 100 1016.3
20260505073026 54 287 0.0 1.0 0.00 0.09 0.01 99 1016.5
20260505071534 53 287 0.0 1.0 0.00 0.09 0.01 100 1016.7
20260505070023 53 287 0.0 2.0 0.00 0.09 0.01 100 1016.7
20260505064523 52 286 0.0 1.0 0.00 0.09 0.01 100 1016.6
20260505063030 52 286 0.0 0.0 0.00 0.09 0.01 99 1016.7
20260505061524 51 287 0.0 0.0 0.00 0.09 0.01 100 1016.6
20260505060019 50 286 0.0 1.0 0.00 0.09 0.01 100 1016.5
20260505054516 49 286 0.0 0.0 0.00 0.09 0.01 99 1016.7
20260505053017 49 286 0.0 0.0 0.00 0.09 0.01 100 1016.5
20260505051532 49 287 0.0 2.0 0.00 0.09 0.01 99 1016.4
20260505041513 49 278 0.0 1.0 0.00 0.09 0.01 99 1016.7
20260505040014 49 278 0.0 1.0 0.00 0.09 0.01 99 1016.6
20260505034511 49 278 0.0 1.0 0.01 0.09 0.01 99 1016.5
20260505033010 50 278 0.0 2.0 0.01 0.09 0.01 99 1016.4
20260505031522 49 278 0.0 2.0 0.01 0.09 0.01 99 1016.4
20260505030008 49 278 0.0 2.0 0.01 0.09 0.01 99 1016.5
20260505024506 49 278 0.0 1.0 0.00 0.08 0.00 99 1016.5
20260505023006 49 278 0.0 2.0 0.00 0.08 0.00 99 1016.5
20260505021506 49 278 0.0 0.0 0.00 0.08 0.00 99 1016.5
20260505020005 49 278 0.0 0.0 0.00 0.08 0.00 99 1016.4
20260505014509 49 278 0.0 0.0 0.00 0.08 0.00 99 1016.4
20260505013003 50 278 0.0 0.0 0.00 0.08 0.00 99 1016.4
20260505011601 50 278 0.0 0.0 0.00 0.08 0.00 99 1016.6
20260505010113 50 278 0.0 0.0 0.00 0.08 0.00 99 1016.6
20260505004557 51 278 0.0 1.0 0.00 0.08 0.00 99 1016.7
20260505003100 51 278 0.0 1.0 0.00 0.08 0.00 99 1016.5
20260505001554 51 278 0.0 0.0 0.00 0.08 0.00 99 1016.6
20260505000059 52 278 0.0 1.0 0.00 0.08 0.00 99 1016.7
20260504234552 52 278 0.0 1.0 0.00 0.08 0.00 99 1016.5
20260504233054 52 278 0.0 2.0 0.00 0.08 0.00 99 1016.6
20260504231548 52 278 1.0 2.0 0.00 0.08 0.00 99 1016.6
20260504230107 53 277 0.0 3.0 0.00 0.08 0.00 99 1016.5
20260504224559 53 257 1.0 4.0 0.00 0.08 0.00 99 1016.5
20260504223044 53 265 1.0 4.0 0.00 0.08 0.00 99 1016.4
20260504221542 54 269 0.0 3.0 0.00 0.08 0.00 99 1016.3
20260504220050 54 269 0.0 2.0 0.00 0.08 0.00 99 1016.4
20260504214543 54 269 0.0 0.0 0.00 0.08 0.08 99 1016.3
20260504213035 55 269 0.0 0.0 0.01 0.08 0.08 99 1016.3
20260504211536 55 269 0.0 0.0 0.03 0.08 0.08 99 1016.4
20260504210040 55 269 0.0 1.0 0.05 0.08 0.08 99 1016.4
20260504204532 55 269 0.0 2.0 0.06 0.08 0.08 99 1016.7
20260504203034 55 290 0.0 2.0 0.06 0.07 0.07 98 1016.6
20260504201530 56 283 1.0 6.0 0.04 0.05 0.05 97 1017.0
20260504200033 59 186 3.0 11.0 0.02 0.03 0.03 87 1017.0
20260504194526 61 294 1.0 5.0 0.02 0.02 0.02 90 1016.3